Time,TemperatureF,DewpointF,PressureIn,WindDirection,WindDirectionDegrees,WindSpeedMPH,WindSpeedGustMPH,Humidity,HourlyPrecipIn,Conditions,Clouds,dailyrainin,SoftwareType,DateUTC
2013-02-07 00:00:00,72.5,63.0,30.03,ESE,112,4.6,4.6,72,0.00,CLR,,0.00,WeatherDisplay:10.37,2013-02-07 05:00:00,
2013-02-07 00:01:00,72.5,63.0,30.03,ESE,112,4.6,4.6,72,0.00,CLR,,0.00,WeatherDisplay:10.37,2013-02-07 05:01:00,
2013-02-07 00:06:00,72.3,62.8,30.03,ENE,68,4.6,4.6,72,0.00,CLR,,0.00,WeatherDisplay:10.37,2013-02-07 05:06:00,
2013-02-07 00:11:00,72.3,62.8,30.03,ESE,112,6.9,6.9,72,0.00,CLR,,0.00,WeatherDisplay:10.37,2013-02-07 05:11:00,
2013-02-07 00:16:00,72.3,62.8,30.03,ESE,112,4.6,4.6,72,0.00,CLR,,0.00,WeatherDisplay:10.37,2013-02-07 05:16:00,
2013-02-07 00:21:00,72.1,62.6,30.03,SE,135,6.9,6.9,72,0.00,CLR,,0.00,WeatherDisplay:10.37,2013-02-07 05:21:00,
2013-02-07 00:26:00,72.1,62.6,30.03,East,90,5.8,5.8,72,0.00,CLR,,0.00,WeatherDisplay:10.37,2013-02-07 05:26:00,
2013-02-07 00:31:00,72.1,62.6,30.01,ESE,112,4.6,4.6,72,0.00,CLR,,0.00,WeatherDisplay:10.37,2013-02-07 05:31:00,
2013-02-07 00:36:00,72.1,62.6,30.01,SE,135,3.5,4.5,72,0.00,CLR,,0.00,WeatherDisplay:10.37,2013-02-07 05:36:00,
2013-02-07 00:41:00,72.1,62.6,30.01,ESE,112,6.9,6.9,72,0.00,CLR,,0.00,WeatherDisplay:10.37,2013-02-07 05:41:00,
2013-02-07 00:46:00,72.1,62.6,30.01,ESE,112,5.8,5.8,72,0.00,CLR,,0.00,WeatherDisplay:10.37,2013-02-07 05:46:00,
2013-02-07 00:51:00,72.1,62.2,30.01,East,90,5.8,5.8,71,0.00,CLR,,0.00,WeatherDisplay:10.37,2013-02-07 05:51:00,
2013-02-07 00:56:00,72.1,61.8,30.01,SE,135,3.5,4.8,70,0.00,CLR,,0.00,WeatherDisplay:10.37,2013-02-07 05:56:00,
2013-02-07 01:01:00,72.1,61.8,30.01,SSE,158,5.8,5.8,70,0.00,CLR,,0.00,WeatherDisplay:10.37,2013-02-07 06:01:00,
2013-02-07 01:06:00,72.1,62.2,30.01,SE,135,4.6,4.6,71,0.00,CLR,,0.00,WeatherDisplay:10.37,2013-02-07 06:06:00,
2013-02-07 01:11:00,72.1,61.8,30.01,East,90,4.6,4.6,70,0.00,CLR,,0.00,WeatherDisplay:10.37,2013-02-07 06:11:00,
2013-02-07 01:16:00,72.1,61.8,30.01,SE,135,5.8,5.8,70,0.00,CLR,,0.00,WeatherDisplay:10.37,2013-02-07 06:16:00,
2013-02-07 01:21:00,72.1,61.8,30.01,SE,135,6.9,6.9,70,0.00,CLR,,0.00,WeatherDisplay:10.37,2013-02-07 06:21:00,
2013-02-07 01:26:00,72.1,61.8,30.01,SE,135,2.3,4.4,70,0.00,CLR,,0.00,WeatherDisplay:10.37,2013-02-07 06:26:00,
2013-02-07 01:31:00,72.1,61.8,30.01,SE,135,5.8,5.8,70,0.00,CLR,,0.00,WeatherDisplay:10.37,2013-02-07 06:31:00,
2013-02-07 01:36:00,72.1,61.8,30.01,SE,135,3.5,4.3,70,0.00,CLR,,0.00,WeatherDisplay:10.37,2013-02-07 06:36:00,
2013-02-07 01:41:00,72.1,61.8,30.01,ENE,68,4.6,4.6,70,0.00,CLR,,0.00,WeatherDisplay:10.37,2013-02-07 06:41:00,
2013-02-07 01:46:00,72.1,61.8,30.01,ENE,68,4.6,4.6,70,0.00,CLR,,0.00,WeatherDisplay:10.37,2013-02-07 06:46:00,
2013-02-07 01:51:00,72.1,61.8,30.01,ESE,112,5.8,5.8,70,0.00,CLR,,0.00,WeatherDisplay:10.37,2013-02-07 06:51:00,
2013-02-07 01:56:00,72.1,61.8,30.01,ESE,112,3.5,3.9,70,0.00,CLR,,0.00,WeatherDisplay:10.37,2013-02-07 06:56:00,
2013-02-07 02:01:00,72.1,61.8,30.01,East,90,6.9,6.9,70,0.00,CLR,,0.00,WeatherDisplay:10.37,2013-02-07 07:01:00,
2013-02-07 02:06:00,72.1,61.8,30.01,ESE,112,5.8,5.8,70,0.00,CLR,,0.00,WeatherDisplay:10.37,2013-02-07 07:06:00,
2013-02-07 02:11:00,72.1,61.8,30.00,ESE,112,3.5,4.1,70,0.00,CLR,,0.00,WeatherDisplay:10.37,2013-02-07 07:11:00,
2013-02-07 02:16:00,72.1,61.8,30.00,East,90,5.8,5.8,70,0.00,CLR,,0.00,WeatherDisplay:10.37,2013-02-07 07:16:00,
2013-02-07 02:21:00,72.1,61.8,30.00,ESE,112,4.6,4.6,70,0.00,CLR,,0.00,WeatherDisplay:10.37,2013-02-07 07:21:00,
2013-02-07 02:26:00,72.3,62.0,30.00,SSE,158,5.8,5.8,70,0.00,CLR,,0.00,WeatherDisplay:10.37,2013-02-07 07:26:00,
2013-02-07 02:31:00,72.3,61.6,30.01,ESE,112,5.8,5.8,69,0.00,CLR,,0.00,WeatherDisplay:10.37,2013-02-07 07:31:00,
2013-02-07 02:36:00,72.3,61.6,30.01,SE,135,5.8,5.8,69,0.00,CLR,,0.00,WeatherDisplay:10.37,2013-02-07 07:36:00,
2013-02-07 02:41:00,72.3,61.6,30.01,ESE,112,5.8,5.8,69,0.00,CLR,,0.00,WeatherDisplay:10.37,2013-02-07 07:41:00,
2013-02-07 02:46:00,72.3,61.6,30.01,SSE,158,4.6,4.6,69,0.00,CLR,,0.00,WeatherDisplay:10.37,2013-02-07 07:46:00,
2013-02-07 02:51:00,72.3,61.6,30.00,ESE,112,5.8,5.8,69,0.00,CLR,,0.00,WeatherDisplay:10.37,2013-02-07 07:51:00,
2013-02-07 02:56:00,72.1,61.4,30.00,ESE,112,2.3,3.3,69,0.00,CLR,,0.00,WeatherDisplay:10.37,2013-02-07 07:56:00,
2013-02-07 03:01:00,72.1,61.4,30.00,ESE,112,8.1,8.1,69,0.00,CLR,,0.00,WeatherDisplay:10.37,2013-02-07 08:01:00,
2013-02-07 03:09:00,72.1,61.4,30.00,ESE,112,5.8,5.8,69,0.00,CLR,,0.00,WeatherDisplay:10.37,2013-02-07 08:09:00,
2013-02-07 03:14:00,72.1,61.4,30.00,ESE,112,4.6,4.6,69,0.00,CLR,,0.00,WeatherDisplay:10.37,2013-02-07 08:14:00,
2013-02-07 03:19:00,72.1,61.4,30.00,SE,135,5.8,5.8,69,0.00,CLR,,0.00,WeatherDisplay:10.37,2013-02-07 08:19:00,
2013-02-07 03:24:00,72.0,61.2,30.00,ESE,112,2.3,3.2,69,0.00,CLR,,0.00,WeatherDisplay:10.37,2013-02-07 08:24:00,
2013-02-07 03:30:00,72.1,61.4,29.99,ESE,112,4.6,4.6,69,0.00,CLR,,0.00,WeatherDisplay:10.37,2013-02-07 08:30:00,
2013-02-07 03:35:00,72.0,61.2,29.99,SE,135,5.8,5.8,69,0.00,CLR,,0.00,WeatherDisplay:10.37,2013-02-07 08:35:00,
2013-02-07 03:40:00,72.0,61.2,29.99,SE,135,5.8,5.8,69,0.00,CLR,,0.00,WeatherDisplay:10.37,2013-02-07 08:40:00,
2013-02-07 03:45:00,72.1,61.4,29.99,SSE,158,4.6,4.6,69,0.00,CLR,,0.00,WeatherDisplay:10.37,2013-02-07 08:45:00,
2013-02-07 03:50:00,72.1,61.4,29.99,SE,135,3.5,3.5,69,0.00,CLR,,0.00,WeatherDisplay:10.37,2013-02-07 08:50:00,
2013-02-07 03:55:00,72.1,61.4,29.99,ESE,112,6.9,6.9,69,0.00,CLR,,0.00,WeatherDisplay:10.37,2013-02-07 08:55:00,
2013-02-07 04:00:00,72.1,61.0,29.99,SSE,158,4.6,4.6,68,0.00,CLR,,0.00,WeatherDisplay:10.37,2013-02-07 09:00:00,
2013-02-07 04:05:00,72.1,61.4,29.99,SE,135,5.8,5.8,69,0.00,CLR,,0.00,WeatherDisplay:10.37,2013-02-07 09:05:00,
2013-02-07 04:10:00,72.0,61.2,29.99,ESE,112,3.5,3.5,69,0.00,CLR,,0.00,WeatherDisplay:10.37,2013-02-07 09:10:00,
2013-02-07 04:15:00,72.1,61.4,29.99,SE,135,4.6,4.6,69,0.00,CLR,,0.00,WeatherDisplay:10.37,2013-02-07 09:15:00,
2013-02-07 04:20:00,72.1,61.0,29.99,East,90,5.8,5.8,68,0.00,CLR,,0.00,WeatherDisplay:10.37,2013-02-07 09:20:00,
2013-02-07 04:25:00,72.0,60.8,29.99,ESE,112,3.5,3.5,68,0.00,CLR,,0.00,WeatherDisplay:10.37,2013-02-07 09:25:00,
2013-02-07 04:30:00,71.8,61.1,29.99,ENE,68,3.5,3.5,69,0.00,CLR,,0.00,WeatherDisplay:10.37,2013-02-07 09:30:00,
2013-02-07 04:35:00,72.0,60.8,29.99,SW,225,3.5,3.5,68,0.00,CLR,,0.00,WeatherDisplay:10.37,2013-02-07 09:35:00,
2013-02-07 04:40:00,71.8,61.1,29.99,ESE,112,3.5,3.5,69,0.00,CLR,,0.00,WeatherDisplay:10.37,2013-02-07 09:40:00,
2013-02-07 04:45:00,71.8,61.1,29.99,East,90,3.5,3.5,69,0.00,CLR,,0.00,WeatherDisplay:10.37,2013-02-07 09:45:00,
2013-02-07 04:50:00,71.6,60.9,29.99,SE,135,3.5,3.5,69,0.00,CLR,,0.00,WeatherDisplay:10.37,2013-02-07 09:50:00,
2013-02-07 04:55:00,71.8,61.1,29.99,SE,135,4.6,4.6,69,0.00,CLR,,0.00,WeatherDisplay:10.37,2013-02-07 09:55:00,
2013-02-07 05:00:00,71.8,61.1,29.99,SE,135,6.9,6.9,69,0.00,CLR,,0.00,WeatherDisplay:10.37,2013-02-07 10:00:00,
2013-02-07 05:05:00,71.6,60.9,29.99,East,90,2.3,3.5,69,0.00,CLR,,0.00,WeatherDisplay:10.37,2013-02-07 10:05:00,
2013-02-07 05:10:00,71.6,60.9,29.98,SE,135,4.6,4.6,69,0.00,CLR,,0.00,WeatherDisplay:10.37,2013-02-07 10:10:00,
2013-02-07 05:15:00,71.6,60.9,29.98,SE,135,6.9,6.9,69,0.00,CLR,,0.00,WeatherDisplay:10.37,2013-02-07 10:15:00,
2013-02-07 05:20:00,71.6,60.9,29.98,SE,135,3.5,3.5,69,0.00,CLR,,0.00,WeatherDisplay:10.37,2013-02-07 10:20:00,
2013-02-07 05:26:00,71.4,60.7,29.98,ESE,112,3.5,3.5,69,0.00,CLR,,0.00,WeatherDisplay:10.37,2013-02-07 10:26:00,
2013-02-07 05:31:00,71.4,60.3,29.98,ESE,112,5.8,5.8,68,0.00,CLR,,0.00,WeatherDisplay:10.37,2013-02-07 10:31:00,
2013-02-07 05:36:00,71.6,60.5,29.98,ESE,112,2.3,3.7,68,0.00,CLR,,0.00,WeatherDisplay:10.37,2013-02-07 10:36:00,
2013-02-07 05:41:00,71.4,60.3,29.98,SE,135,4.6,4.6,68,0.00,CLR,,0.00,WeatherDisplay:10.37,2013-02-07 10:41:00,
2013-02-07 05:46:00,71.6,60.9,29.98,SE,135,4.6,4.6,69,0.00,CLR,,0.00,WeatherDisplay:10.37,2013-02-07 10:46:00,
2013-02-07 05:51:00,71.4,60.3,29.99,SE,135,4.6,4.6,68,0.00,CLR,,0.00,WeatherDisplay:10.37,2013-02-07 10:51:00,
2013-02-07 05:56:00,71.4,60.7,29.99,SE,135,2.3,3.5,69,0.00,CLR,,0.00,WeatherDisplay:10.37,2013-02-07 10:56:00,
2013-02-07 06:01:00,71.4,60.3,29.99,ESE,112,4.6,4.6,68,0.00,CLR,,0.00,WeatherDisplay:10.37,2013-02-07 11:01:00,
2013-02-07 06:06:00,71.6,60.9,29.98,ESE,112,6.9,6.9,69,0.00,CLR,,0.00,WeatherDisplay:10.37,2013-02-07 11:06:00,
2013-02-07 06:11:00,71.6,60.9,29.98,ESE,112,2.3,3.8,69,0.00,CLR,,0.00,WeatherDisplay:10.37,2013-02-07 11:11:00,
2013-02-07 06:16:00,71.6,60.9,29.98,ESE,112,3.5,3.7,69,0.00,CLR,,0.00,WeatherDisplay:10.37,2013-02-07 11:16:00,
2013-02-07 06:21:00,71.6,60.9,29.98,East,90,4.6,4.6,69,0.00,CLR,,0.00,WeatherDisplay:10.37,2013-02-07 11:21:00,
2013-02-07 06:26:00,71.4,60.7,29.99,ESE,112,4.6,4.6,69,0.00,CLR,,0.00,WeatherDisplay:10.37,2013-02-07 11:26:00,
2013-02-07 06:31:00,71.4,60.7,29.99,ESE,112,5.8,5.8,69,0.00,CLR,,0.00,WeatherDisplay:10.37,2013-02-07 11:31:00,
2013-02-07 06:36:00,71.4,61.1,29.99,SE,135,6.9,6.9,70,0.00,CLR,,0.00,WeatherDisplay:10.37,2013-02-07 11:36:00,
2013-02-07 06:41:00,71.4,61.1,29.99,ESE,112,4.6,4.6,70,0.00,CLR,,0.00,WeatherDisplay:10.37,2013-02-07 11:41:00,
2013-02-07 06:46:00,71.6,61.3,29.99,SE,135,3.5,3.6,70,0.00,CLR,,0.00,WeatherDisplay:10.37,2013-02-07 11:46:00,
2013-02-07 06:51:00,71.6,61.3,29.99,ENE,68,5.8,5.8,70,0.00,CLR,,0.00,WeatherDisplay:10.37,2013-02-07 11:51:00,
2013-02-07 06:56:00,71.8,61.5,29.99,ESE,112,1.1,2.6,70,0.00,CLR,,0.00,WeatherDisplay:10.37,2013-02-07 11:56:00,
2013-02-07 07:02:00,71.6,61.3,29.99,SE,135,3.5,3.5,70,0.00,CLR,,0.00,WeatherDisplay:10.37,2013-02-07 12:02:00,
2013-02-07 07:07:00,71.4,61.1,30.00,SE,135,3.5,3.5,70,0.00,CLR,,0.00,WeatherDisplay:10.37,2013-02-07 12:07:00,
2013-02-07 07:12:00,71.2,61.0,30.00,ESE,112,2.3,2.3,70,0.00,CLR,,0.00,WeatherDisplay:10.37,2013-02-07 12:12:00,
2013-02-07 07:17:00,71.4,61.1,30.00,North,0,2.3,2.3,70,0.00,CLR,,0.00,WeatherDisplay:10.37,2013-02-07 12:17:00,
2013-02-07 07:22:00,71.4,61.5,30.00,ESE,112,2.3,2.3,71,0.00,CLR,,0.00,WeatherDisplay:10.37,2013-02-07 12:22:00,
2013-02-07 07:27:00,71.6,61.7,30.00,SE,135,4.6,4.6,71,0.00,CLR,,0.00,WeatherDisplay:10.37,2013-02-07 12:27:00,
2013-02-07 07:32:00,71.8,61.9,30.00,SE,135,3.5,3.5,71,0.00,CLR,,0.00,WeatherDisplay:10.37,2013-02-07 12:32:00,
2013-02-07 07:37:00,72.1,61.8,30.00,SE,135,4.6,4.6,70,0.00,CLR,,0.00,WeatherDisplay:10.37,2013-02-07 12:37:00,
2013-02-07 07:42:00,72.1,61.8,30.00,ESE,112,5.8,5.8,70,0.00,CLR,,0.00,WeatherDisplay:10.37,2013-02-07 12:42:00,
2013-02-07 07:47:00,72.1,61.8,30.01,ESE,112,2.3,2.8,70,0.00,CLR,,0.00,WeatherDisplay:10.37,2013-02-07 12:47:00,
2013-02-07 07:52:00,72.5,62.2,30.01,South,180,3.5,3.5,70,0.00,CLR,,0.00,WeatherDisplay:10.37,2013-02-07 12:52:00,
2013-02-07 07:57:00,72.9,62.5,30.01,SE,135,2.3,2.6,70,0.00,CLR,,0.00,WeatherDisplay:10.37,2013-02-07 12:57:00,
2013-02-07 08:02:00,73.2,62.8,30.01,ESE,112,3.5,3.5,70,0.00,CLR,,0.00,WeatherDisplay:10.37,2013-02-07 13:02:00,
2013-02-07 08:07:00,73.8,63.0,30.01,ESE,112,3.5,3.5,69,0.00,CLR,,0.00,WeatherDisplay:10.37,2013-02-07 13:07:00,
2013-02-07 08:12:00,73.9,63.1,30.01,SE,135,3.5,3.5,69,0.00,CLR,,0.00,WeatherDisplay:10.37,2013-02-07 13:12:00,
2013-02-07 08:17:00,74.3,63.5,30.01,SE,135,5.8,5.8,69,0.00,CLR,,0.00,WeatherDisplay:10.37,2013-02-07 13:17:00,
2013-02-07 08:22:00,73.9,63.1,30.01,SE,135,4.6,4.6,69,0.00,CLR,,0.00,WeatherDisplay:10.37,2013-02-07 13:22:00,
2013-02-07 08:27:00,73.8,62.5,30.01,SE,135,3.5,3.5,68,0.00,CLR,,0.00,WeatherDisplay:10.37,2013-02-07 13:27:00,
2013-02-07 08:32:00,74.1,62.9,30.01,ESE,112,4.6,4.6,68,0.00,CLR,,0.00,WeatherDisplay:10.37,2013-02-07 13:32:00,
2013-02-07 08:37:00,74.7,63.8,30.01,ESE,112,3.5,3.5,69,0.00,CLR,,0.00,WeatherDisplay:10.37,2013-02-07 13:37:00,
2013-02-07 08:42:00,75.0,64.2,30.01,ENE,68,4.6,4.6,69,0.00,CLR,,0.00,WeatherDisplay:10.37,2013-02-07 13:42:00,
2013-02-07 08:47:00,75.0,63.3,30.02,SSE,158,2.3,3.5,67,0.00,CLR,,0.00,WeatherDisplay:10.37,2013-02-07 13:47:00,
2013-02-07 08:52:00,75.0,63.3,30.02,SE,135,4.6,4.6,67,0.00,CLR,,0.00,WeatherDisplay:10.37,2013-02-07 13:52:00,
2013-02-07 08:57:00,75.7,64.4,30.02,SE,135,2.3,3.5,68,0.00,CLR,,0.00,WeatherDisplay:10.37,2013-02-07 13:57:00,
2013-02-07 09:02:00,76.1,64.3,30.02,SE,135,4.6,4.6,67,0.00,CLR,,0.00,WeatherDisplay:10.37,2013-02-07 14:02:00,
2013-02-07 09:07:00,76.3,64.1,30.02,East,90,3.5,3.5,66,0.00,CLR,,0.00,WeatherDisplay:10.37,2013-02-07 14:07:00,
2013-02-07 09:12:00,76.8,64.6,30.02,SE,135,4.6,4.6,66,0.00,CLR,,0.00,WeatherDisplay:10.37,2013-02-07 14:12:00,
2013-02-07 09:17:00,76.8,64.2,30.02,ESE,112,4.6,4.6,65,0.00,CLR,,0.00,WeatherDisplay:10.37,2013-02-07 14:17:00,
2013-02-07 09:22:00,76.8,64.2,30.02,SE,135,6.9,6.9,65,0.00,CLR,,0.00,WeatherDisplay:10.37,2013-02-07 14:22:00,
2013-02-07 09:27:00,77.2,64.9,30.02,East,90,5.8,5.8,66,0.00,CLR,,0.00,WeatherDisplay:10.37,2013-02-07 14:27:00,
2013-02-07 09:32:00,77.4,64.7,30.02,SE,135,4.6,4.6,65,0.00,CLR,,0.00,WeatherDisplay:10.37,2013-02-07 14:32:00,
2013-02-07 09:37:00,77.5,64.8,30.02,ESE,112,5.8,5.8,65,0.00,CLR,,0.00,WeatherDisplay:10.37,2013-02-07 14:37:00,
2013-02-07 09:42:00,77.7,65.0,30.02,SSE,158,4.6,4.6,65,0.00,CLR,,0.00,WeatherDisplay:10.37,2013-02-07 14:42:00,
2013-02-07 09:47:00,77.9,64.7,30.01,ENE,68,4.6,4.6,64,0.00,CLR,,0.00,WeatherDisplay:10.37,2013-02-07 14:47:00,
2013-02-07 09:52:00,78.1,64.9,30.01,SE,135,9.2,9.2,64,0.00,CLR,,0.00,WeatherDisplay:10.37,2013-02-07 14:52:00,
2013-02-07 09:57:00,78.3,65.1,30.01,SE,135,6.9,6.9,64,0.00,CLR,,0.00,WeatherDisplay:10.37,2013-02-07 14:57:00,
2013-02-07 10:02:00,78.4,65.2,30.01,SE,135,5.8,5.8,64,0.00,CLR,,0.00,WeatherDisplay:10.37,2013-02-07 15:02:00,
2013-02-07 10:07:00,78.6,65.4,30.02,ESE,112,5.8,5.8,64,0.00,CLR,,0.00,WeatherDisplay:10.37,2013-02-07 15:07:00,
2013-02-07 10:12:00,78.6,65.4,30.02,ESE,112,5.8,5.8,64,0.00,CLR,,0.00,WeatherDisplay:10.37,2013-02-07 15:12:00,
2013-02-07 10:17:00,79.0,65.8,30.02,SE,135,5.8,5.8,64,0.00,CLR,,0.00,WeatherDisplay:10.37,2013-02-07 15:17:00,
2013-02-07 10:22:00,79.0,65.8,30.02,SE,135,6.9,6.9,64,0.00,CLR,,0.00,WeatherDisplay:10.37,2013-02-07 15:22:00,
2013-02-07 10:27:00,79.2,65.9,30.01,ENE,68,4.6,4.6,64,0.00,CLR,,0.00,WeatherDisplay:10.37,2013-02-07 15:27:00,
2013-02-07 10:32:00,79.5,66.3,30.01,WSW,248,4.6,4.6,64,0.00,CLR,,0.00,WeatherDisplay:10.37,2013-02-07 15:32:00,
2013-02-07 10:37:00,79.7,66.0,30.01,SSE,158,4.6,4.6,63,0.00,CLR,,0.00,WeatherDisplay:10.37,2013-02-07 15:37:00,
2013-02-07 10:42:00,79.9,66.2,30.01,East,90,5.8,5.8,63,0.00,CLR,,0.00,WeatherDisplay:10.37,2013-02-07 15:42:00,
2013-02-07 10:47:00,79.5,65.8,30.01,ESE,112,4.6,4.6,63,0.00,CLR,,0.00,WeatherDisplay:10.37,2013-02-07 15:47:00,
2013-02-07 10:52:00,80.2,66.5,30.01,SE,135,8.1,8.1,63,0.00,CLR,,0.00,WeatherDisplay:10.37,2013-02-07 15:52:00,
2013-02-07 10:57:00,80.4,66.7,30.01,SE,135,6.9,6.9,63,0.00,CLR,,0.00,WeatherDisplay:10.37,2013-02-07 15:57:00,
2013-02-07 11:02:00,80.2,67.0,30.01,East,90,6.9,6.9,64,0.00,CLR,,0.00,WeatherDisplay:10.37,2013-02-07 16:02:00,
2013-02-07 11:07:00,79.9,67.1,30.01,ENE,68,5.8,5.8,65,0.00,CLR,,0.00,WeatherDisplay:10.37,2013-02-07 16:07:00,
2013-02-07 11:12:00,80.2,67.4,30.01,SE,135,8.1,8.1,65,0.00,CLR,,0.00,WeatherDisplay:10.37,2013-02-07 16:12:00,
2013-02-07 11:17:00,80.8,67.5,30.01,West,270,4.6,4.6,64,0.00,CLR,,0.00,WeatherDisplay:10.37,2013-02-07 16:17:00,
2013-02-07 11:22:00,80.6,67.3,30.01,SE,135,8.1,8.1,64,0.00,CLR,,0.00,WeatherDisplay:10.37,2013-02-07 16:22:00,
2013-02-07 11:27:00,81.0,67.6,30.00,ENE,68,5.8,5.8,64,0.00,CLR,,0.00,WeatherDisplay:10.37,2013-02-07 16:27:00,
2013-02-07 11:32:00,81.0,67.6,30.00,ESE,112,4.6,4.6,64,0.00,CLR,,0.00,WeatherDisplay:10.37,2013-02-07 16:32:00,
2013-02-07 11:37:00,81.1,67.3,30.00,ESE,112,5.8,5.8,63,0.00,CLR,,0.00,WeatherDisplay:10.37,2013-02-07 16:37:00,
2013-02-07 11:42:00,81.3,67.5,30.00,ESE,112,5.8,5.8,63,0.00,CLR,,0.00,WeatherDisplay:10.37,2013-02-07 16:42:00,
2013-02-07 11:47:00,81.5,67.7,30.00,SE,135,6.9,6.9,63,0.00,CLR,,0.00,WeatherDisplay:10.37,2013-02-07 16:47:00,
2013-02-07 11:52:00,81.9,68.0,30.00,ESE,112,8.1,8.1,63,0.00,CLR,,0.00,WeatherDisplay:10.37,2013-02-07 16:52:00,
2013-02-07 11:57:00,81.9,68.0,30.00,ENE,68,3.5,4.4,63,0.00,CLR,,0.00,WeatherDisplay:10.37,2013-02-07 16:57:00,
2013-02-07 12:03:00,82.0,68.2,30.00,ESE,112,5.8,5.8,63,0.00,CLR,,0.00,WeatherDisplay:10.37,2013-02-07 17:03:00,
2013-02-07 12:08:00,82.0,68.2,29.99,ESE,112,6.9,6.9,63,0.00,CLR,,0.00,WeatherDisplay:10.37,2013-02-07 17:08:00,
2013-02-07 12:13:00,82.2,67.9,29.99,East,90,6.9,6.9,62,0.00,CLR,,0.00,WeatherDisplay:10.37,2013-02-07 17:13:00,
2013-02-07 12:18:00,81.7,67.9,29.99,East,90,4.6,4.6,63,0.00,CLR,,0.00,WeatherDisplay:10.37,2013-02-07 17:18:00,
2013-02-07 12:23:00,81.3,68.0,29.99,SSE,158,6.9,6.9,64,0.00,CLR,,0.00,WeatherDisplay:10.37,2013-02-07 17:23:00,
2013-02-07 12:28:00,81.7,67.9,29.97,SE,135,10.4,10.4,63,0.00,CLR,,0.00,WeatherDisplay:10.37,2013-02-07 17:28:00,
2013-02-07 12:33:00,81.1,67.3,29.97,SE,135,5.8,5.8,63,0.00,CLR,,0.00,WeatherDisplay:10.37,2013-02-07 17:33:00,
2013-02-07 12:38:00,80.6,66.8,29.97,ENE,68,4.6,4.9,63,0.00,CLR,,0.00,WeatherDisplay:10.37,2013-02-07 17:38:00,
2013-02-07 12:43:00,80.6,67.3,29.97,SE,135,4.6,4.6,64,0.00,CLR,,0.00,WeatherDisplay:10.37,2013-02-07 17:43:00,
2013-02-07 12:48:00,81.5,68.1,29.96,ESE,112,3.5,3.9,64,0.00,CLR,,0.00,WeatherDisplay:10.37,2013-02-07 17:48:00,
2013-02-07 12:53:00,82.2,68.4,29.96,SSE,158,4.6,4.6,63,0.00,CLR,,0.00,WeatherDisplay:10.37,2013-02-07 17:53:00,
2013-02-07 12:58:00,83.1,68.3,29.96,South,180,4.6,4.6,61,0.00,CLR,,0.00,WeatherDisplay:10.37,2013-02-07 17:58:00,
2013-02-07 13:03:00,83.8,68.5,29.96,SSE,158,8.1,8.1,60,0.00,CLR,,0.00,WeatherDisplay:10.37,2013-02-07 18:03:00,
2013-02-07 13:08:00,84.2,68.3,29.95,ENE,68,6.9,6.9,59,0.00,CLR,,0.00,WeatherDisplay:10.37,2013-02-07 18:08:00,
2013-02-07 13:13:00,83.8,68.5,29.95,SSE,158,6.9,6.9,60,0.00,CLR,,0.00,WeatherDisplay:10.37,2013-02-07 18:13:00,
2013-02-07 13:18:00,83.8,68.5,29.95,SW,225,4.6,4.9,60,0.00,CLR,,0.00,WeatherDisplay:10.37,2013-02-07 18:18:00,
2013-02-07 13:23:00,83.7,68.3,29.95,SSE,158,5.8,5.8,60,0.00,CLR,,0.00,WeatherDisplay:10.37,2013-02-07 18:23:00,
2013-02-07 13:28:00,84.0,68.1,29.95,South,180,6.9,6.9,59,0.00,CLR,,0.00,WeatherDisplay:10.37,2013-02-07 18:28:00,
2013-02-07 13:33:00,83.7,68.3,29.95,WSW,248,4.6,4.6,60,0.00,CLR,,0.00,WeatherDisplay:10.37,2013-02-07 18:33:00,
2013-02-07 13:38:00,83.7,68.3,29.95,SSE,158,4.6,4.6,60,0.00,CLR,,0.00,WeatherDisplay:10.37,2013-02-07 18:38:00,
2013-02-07 13:43:00,83.7,68.3,29.95,SE,135,4.6,4.6,60,0.00,CLR,,0.00,WeatherDisplay:10.37,2013-02-07 18:43:00,
2013-02-07 13:48:00,83.7,67.8,29.94,SSE,158,6.9,6.9,59,0.00,CLR,,0.00,WeatherDisplay:10.37,2013-02-07 18:48:00,
2013-02-07 13:53:00,83.7,67.8,29.94,SE,135,4.6,4.8,59,0.00,CLR,,0.00,WeatherDisplay:10.37,2013-02-07 18:53:00,
2013-02-07 13:58:00,83.3,67.5,29.94,South,180,6.9,6.9,59,0.00,CLR,,0.00,WeatherDisplay:10.37,2013-02-07 18:58:00,
2013-02-07 14:03:00,83.3,67.0,29.94,South,180,8.1,8.1,58,0.00,CLR,,0.00,WeatherDisplay:10.37,2013-02-07 19:03:00,
2013-02-07 14:08:00,82.9,66.6,29.94,SSE,158,4.6,4.6,58,0.00,CLR,,0.00,WeatherDisplay:10.37,2013-02-07 19:08:00,
2013-02-07 14:13:00,83.1,67.3,29.94,North,0,8.1,8.1,59,0.00,CLR,,0.00,WeatherDisplay:10.37,2013-02-07 19:13:00,
2013-02-07 14:18:00,83.1,67.3,29.94,West,270,8.1,8.1,59,0.00,CLR,,0.00,WeatherDisplay:10.37,2013-02-07 19:18:00,
2013-02-07 14:23:00,83.1,67.3,29.94,ESE,112,3.5,4.5,59,0.00,CLR,,0.00,WeatherDisplay:10.37,2013-02-07 19:23:00,
2013-02-07 14:28:00,82.9,66.6,29.93,South,180,6.9,6.9,58,0.00,CLR,,0.00,WeatherDisplay:10.37,2013-02-07 19:28:00,
2013-02-07 14:33:00,82.9,67.1,29.93,South,180,9.2,9.2,59,0.00,CLR,,0.00,WeatherDisplay:10.37,2013-02-07 19:33:00,
2013-02-07 14:38:00,82.6,66.8,29.93,WSW,248,5.8,5.8,59,0.00,CLR,,0.00,WeatherDisplay:10.37,2013-02-07 19:38:00,
2013-02-07 14:43:00,82.6,66.8,29.93,SE,135,5.8,5.8,59,0.00,CLR,,0.00,WeatherDisplay:10.37,2013-02-07 19:43:00,
2013-02-07 14:48:00,82.4,66.6,29.94,South,180,8.1,8.1,59,0.00,CLR,,0.00,WeatherDisplay:10.37,2013-02-07 19:48:00,
2013-02-07 14:53:00,82.2,66.9,29.94,SSE,158,6.9,6.9,60,0.00,CLR,,0.00,WeatherDisplay:10.37,2013-02-07 19:53:00,
2013-02-07 14:58:00,82.4,67.1,29.94,South,180,6.9,6.9,60,0.00,CLR,,0.00,WeatherDisplay:10.37,2013-02-07 19:58:00,
2013-02-07 15:03:00,82.2,66.5,29.94,SE,135,5.8,5.8,59,0.00,CLR,,0.00,WeatherDisplay:10.37,2013-02-07 20:03:00,
2013-02-07 15:08:00,81.9,66.1,29.93,SE,135,6.9,6.9,59,0.00,CLR,,0.00,WeatherDisplay:10.37,2013-02-07 20:08:00,
2013-02-07 15:13:00,81.9,66.6,29.93,South,180,6.9,6.9,60,0.00,CLR,,0.00,WeatherDisplay:10.37,2013-02-07 20:13:00,
2013-02-07 15:18:00,81.7,66.0,29.93,SE,135,9.2,9.2,59,0.00,CLR,,0.00,WeatherDisplay:10.37,2013-02-07 20:18:00,
2013-02-07 15:23:00,81.5,65.8,29.93,NE,45,3.5,5.2,59,0.00,CLR,,0.00,WeatherDisplay:10.37,2013-02-07 20:23:00,
2013-02-07 15:28:00,81.1,65.9,29.92,SE,135,6.9,6.9,60,0.00,CLR,,0.00,WeatherDisplay:10.37,2013-02-07 20:28:00,
2013-02-07 15:33:00,81.1,65.9,29.92,South,180,8.1,8.1,60,0.00,CLR,,0.00,WeatherDisplay:10.37,2013-02-07 20:33:00,
2013-02-07 15:38:00,81.0,65.8,29.92,SE,135,5.8,5.8,60,0.00,CLR,,0.00,WeatherDisplay:10.37,2013-02-07 20:38:00,
2013-02-07 15:43:00,80.8,65.6,29.92,SE,135,5.8,5.8,60,0.00,CLR,,0.00,WeatherDisplay:10.37,2013-02-07 20:43:00,
2013-02-07 15:48:00,80.8,65.6,29.93,South,180,9.2,9.2,60,0.00,CLR,,0.00,WeatherDisplay:10.37,2013-02-07 20:48:00,
2013-02-07 15:53:00,81.0,65.8,29.93,SSE,158,6.9,6.9,60,0.00,CLR,,0.00,WeatherDisplay:10.37,2013-02-07 20:53:00,
2013-02-07 15:58:00,80.8,65.6,29.93,South,180,8.1,8.1,60,0.00,CLR,,0.00,WeatherDisplay:10.37,2013-02-07 20:58:00,
2013-02-07 16:03:00,80.2,65.1,29.93,WNW,292,4.6,5.8,60,0.00,CLR,,0.00,WeatherDisplay:10.37,2013-02-07 21:03:00,
2013-02-07 16:08:00,80.1,65.4,29.93,South,180,6.9,6.9,61,0.00,CLR,,0.00,WeatherDisplay:10.37,2013-02-07 21:08:00,
2013-02-07 16:13:00,80.2,65.6,29.93,SSE,158,8.1,8.1,61,0.00,CLR,,0.00,WeatherDisplay:10.37,2013-02-07 21:13:00,
2013-02-07 16:18:00,79.9,65.7,29.93,SSE,158,9.2,9.2,62,0.00,CLR,,0.00,WeatherDisplay:10.37,2013-02-07 21:18:00,
2013-02-07 16:23:00,79.9,65.7,29.93,SSE,158,8.1,8.1,62,0.00,CLR,,0.00,WeatherDisplay:10.37,2013-02-07 21:23:00,
2013-02-07 16:28:00,79.5,65.8,29.93,South,180,10.4,10.4,63,0.00,CLR,,0.00,WeatherDisplay:10.37,2013-02-07 21:28:00,
2013-02-07 16:33:00,79.7,66.0,29.93,SSE,158,8.1,8.1,63,0.00,CLR,,0.00,WeatherDisplay:10.37,2013-02-07 21:33:00,
2013-02-07 16:39:00,79.5,65.8,29.93,SSE,158,9.2,9.2,63,0.00,CLR,,0.00,WeatherDisplay:10.37,2013-02-07 21:39:00,
2013-02-07 16:44:00,79.2,65.9,29.93,SSE,158,5.8,5.8,64,0.00,CLR,,0.00,WeatherDisplay:10.37,2013-02-07 21:44:00,
2013-02-07 16:49:00,79.3,66.1,29.93,SSE,158,8.1,8.1,64,0.00,CLR,,0.00,WeatherDisplay:10.37,2013-02-07 21:49:00,
2013-02-07 16:54:00,79.0,65.8,29.93,SE,135,3.5,4.5,64,0.00,CLR,,0.00,WeatherDisplay:10.37,2013-02-07 21:54:00,
2013-02-07 16:59:00,79.0,65.8,29.93,SE,135,5.8,5.8,64,0.00,CLR,,0.00,WeatherDisplay:10.37,2013-02-07 21:59:00,
2013-02-07 17:04:00,78.6,65.9,29.93,SSE,158,5.8,5.8,65,0.00,CLR,,0.00,WeatherDisplay:10.37,2013-02-07 22:04:00,
2013-02-07 17:09:00,78.6,65.9,29.92,ESE,112,6.9,6.9,65,0.00,CLR,,0.00,WeatherDisplay:10.37,2013-02-07 22:09:00,
2013-02-07 17:14:00,78.6,65.9,29.92,West,270,5.8,5.8,65,0.00,CLR,,0.00,WeatherDisplay:10.37,2013-02-07 22:14:00,
2013-02-07 17:19:00,78.3,65.5,29.92,SE,135,6.9,6.9,65,0.00,CLR,,0.00,WeatherDisplay:10.37,2013-02-07 22:19:00,
2013-02-07 17:24:00,78.3,66.0,29.92,SSE,158,8.1,8.1,66,0.00,CLR,,0.00,WeatherDisplay:10.37,2013-02-07 22:24:00,
2013-02-07 17:29:00,77.9,65.6,29.92,ESE,112,10.4,10.4,66,0.00,CLR,,0.00,WeatherDisplay:10.37,2013-02-07 22:29:00,
2013-02-07 17:34:00,77.9,65.6,29.92,SW,225,9.2,9.2,66,0.00,CLR,,0.00,WeatherDisplay:10.37,2013-02-07 22:34:00,
2013-02-07 17:39:00,77.5,65.3,29.92,South,180,6.9,6.9,66,0.00,CLR,,0.00,WeatherDisplay:10.37,2013-02-07 22:39:00,
2013-02-07 17:44:00,77.5,65.7,29.92,SE,135,4.6,4.8,67,0.00,CLR,,0.00,WeatherDisplay:10.37,2013-02-07 22:44:00,
2013-02-07 17:49:00,77.2,65.4,29.92,SSE,158,6.9,6.9,67,0.00,CLR,,0.00,WeatherDisplay:10.37,2013-02-07 22:49:00,
2013-02-07 17:54:00,77.2,65.8,29.92,SE,135,4.6,4.6,68,0.00,CLR,,0.00,WeatherDisplay:10.37,2013-02-07 22:54:00,
2013-02-07 17:59:00,76.8,65.5,29.92,SE,135,4.6,4.6,68,0.00,CLR,,0.00,WeatherDisplay:10.37,2013-02-07 22:59:00,
2013-02-07 18:04:00,76.8,65.5,29.92,South,180,6.9,6.9,68,0.00,CLR,,0.00,WeatherDisplay:10.37,2013-02-07 23:04:00,
2013-02-07 18:09:00,76.5,65.1,29.92,SE,135,4.6,4.6,68,0.00,CLR,,0.00,WeatherDisplay:10.37,2013-02-07 23:09:00,
2013-02-07 18:14:00,76.5,65.5,29.92,NNE,22,4.6,4.6,69,0.00,CLR,,0.00,WeatherDisplay:10.37,2013-02-07 23:14:00,
2013-02-07 18:19:00,76.3,65.4,29.92,South,180,4.6,4.6,69,0.00,CLR,,0.00,WeatherDisplay:10.37,2013-02-07 23:19:00,
2013-02-07 18:24:00,76.1,65.2,29.92,SE,135,4.6,4.6,69,0.00,CLR,,0.00,WeatherDisplay:10.37,2013-02-07 23:24:00,
2013-02-07 18:29:00,75.9,65.0,29.92,South,180,4.6,4.6,69,0.00,CLR,,0.00,WeatherDisplay:10.37,2013-02-07 23:29:00,
2013-02-07 18:34:00,75.9,65.0,29.92,South,180,4.6,4.6,69,0.00,CLR,,0.00,WeatherDisplay:10.37,2013-02-07 23:34:00,
2013-02-07 18:39:00,75.9,65.0,29.92,South,180,2.3,3.3,69,0.00,CLR,,0.00,WeatherDisplay:10.37,2013-02-07 23:39:00,
2013-02-07 18:44:00,75.9,65.0,29.92,SSE,158,2.3,2.5,69,0.00,CLR,,0.00,WeatherDisplay:10.37,2013-02-07 23:44:00,
2013-02-07 18:49:00,75.9,65.0,29.93,SE,135,4.6,4.6,69,0.00,CLR,,0.00,WeatherDisplay:10.37,2013-02-07 23:49:00,
2013-02-07 18:54:00,75.9,65.0,29.93,South,180,4.6,4.6,69,0.00,CLR,,0.00,WeatherDisplay:10.37,2013-02-07 23:54:00,
2013-02-07 18:59:00,75.7,64.8,29.93,SSE,158,4.6,4.6,69,0.00,CLR,,0.00,WeatherDisplay:10.37,2013-02-07 23:59:00,
2013-02-07 19:04:00,75.7,64.8,29.93,SSE,158,5.8,5.8,69,0.00,CLR,,0.00,WeatherDisplay:10.37,2013-02-08 00:04:00,
2013-02-07 19:09:00,75.7,64.8,29.94,South,180,3.5,3.5,69,0.00,CLR,,0.00,WeatherDisplay:10.37,2013-02-08 00:09:00,
2013-02-07 19:14:00,75.7,64.8,29.94,SE,135,1.1,1.1,69,0.00,CLR,,0.00,WeatherDisplay:10.37,2013-02-08 00:14:00,
2013-02-07 19:19:00,75.7,64.8,29.94,WSW,248,2.3,2.3,69,0.00,CLR,,0.00,WeatherDisplay:10.37,2013-02-08 00:19:00,
2013-02-07 19:24:00,75.7,64.8,29.94,SSE,158,1.1,1.8,69,0.00,CLR,,0.00,WeatherDisplay:10.37,2013-02-08 00:24:00,
2013-02-07 19:29:00,75.7,64.8,29.95,SSE,158,2.3,2.3,69,0.00,CLR,,0.00,WeatherDisplay:10.37,2013-02-08 00:29:00,
2013-02-07 19:34:00,75.7,64.8,29.95,ESE,112,1.1,1.8,69,0.00,CLR,,0.00,WeatherDisplay:10.37,2013-02-08 00:34:00,
2013-02-07 19:39:00,75.7,64.8,29.95,SE,135,2.3,2.3,69,0.00,CLR,,0.00,WeatherDisplay:10.37,2013-02-08 00:39:00,
2013-02-07 19:44:00,75.6,64.3,29.95,SSE,158,2.3,2.3,68,0.00,CLR,,0.00,WeatherDisplay:10.37,2013-02-08 00:44:00,
2013-02-07 19:49:00,75.7,64.4,29.94,SSE,158,2.3,2.3,68,0.00,CLR,,0.00,WeatherDisplay:10.37,2013-02-08 00:49:00,
2013-02-07 19:54:00,75.6,64.3,29.94,South,180,2.3,2.3,68,0.00,CLR,,0.00,WeatherDisplay:10.37,2013-02-08 00:54:00,
2013-02-07 19:59:00,75.4,64.1,29.94,SSE,158,2.3,2.3,68,0.00,CLR,,0.00,WeatherDisplay:10.37,2013-02-08 00:59:00,
2013-02-07 20:04:00,75.4,64.1,29.94,South,180,2.3,2.3,68,0.00,CLR,,0.00,WeatherDisplay:10.37,2013-02-08 01:04:00,
2013-02-07 20:09:00,75.4,64.1,29.95,South,180,2.3,2.3,68,0.00,CLR,,0.00,WeatherDisplay:10.37,2013-02-08 01:09:00,
2013-02-07 20:14:00,75.2,63.9,29.95,SSE,158,2.3,2.3,68,0.00,CLR,,0.00,WeatherDisplay:10.37,2013-02-08 01:14:00,
2013-02-07 20:19:00,75.0,63.7,29.95,South,180,2.3,2.3,68,0.00,CLR,,0.00,WeatherDisplay:10.37,2013-02-08 01:19:00,
2013-02-07 20:24:00,74.8,63.6,29.95,SSW,202,0.0,0.6,68,0.00,CLR,,0.00,WeatherDisplay:10.37,2013-02-08 01:24:00,
2013-02-07 20:29:00,75.0,63.7,29.95,South,180,1.1,1.1,68,0.00,CLR,,0.00,WeatherDisplay:10.37,2013-02-08 01:29:00,
2013-02-07 20:34:00,74.7,63.4,29.95,South,180,2.3,2.3,68,0.00,CLR,,0.00,WeatherDisplay:10.37,2013-02-08 01:34:00,
2013-02-07 20:39:00,74.7,63.4,29.95,SSE,158,2.3,2.3,68,0.00,CLR,,0.00,WeatherDisplay:10.37,2013-02-08 01:39:00,
2013-02-07 20:44:00,74.7,63.8,29.95,SSE,158,2.3,2.3,69,0.00,CLR,,0.00,WeatherDisplay:10.37,2013-02-08 01:44:00,
2013-02-07 20:49:00,74.7,63.8,29.95,North,0,2.3,2.3,69,0.00,CLR,,0.00,WeatherDisplay:10.37,2013-02-08 01:49:00,
2013-02-07 20:54:00,74.5,63.6,29.95,SSW,202,4.6,4.6,69,0.00,CLR,,0.00,WeatherDisplay:10.37,2013-02-08 01:54:00,
2013-02-07 20:59:00,74.5,63.6,29.95,SW,225,2.3,2.3,69,0.00,CLR,,0.00,WeatherDisplay:10.37,2013-02-08 01:59:00,
2013-02-07 21:04:00,74.3,63.5,29.95,SSE,158,0.0,1.1,69,0.00,CLR,,0.00,WeatherDisplay:10.37,2013-02-08 02:04:00,
2013-02-07 21:09:00,74.1,63.3,29.96,SW,225,3.5,3.5,69,0.00,CLR,,0.00,WeatherDisplay:10.37,2013-02-08 02:09:00,
2013-02-07 21:14:00,74.3,63.5,29.96,SSW,202,1.1,1.1,69,0.00,CLR,,0.00,WeatherDisplay:10.37,2013-02-08 02:14:00,
2013-02-07 21:19:00,74.3,63.5,29.96,SSE,158,1.1,1.1,69,0.00,CLR,,0.00,WeatherDisplay:10.37,2013-02-08 02:19:00,
2013-02-07 21:24:00,73.9,63.1,29.96,WSW,248,0.0,0.9,69,0.00,CLR,,0.00,WeatherDisplay:10.37,2013-02-08 02:24:00,
2013-02-07 21:29:00,73.9,63.1,29.95,SE,135,2.3,2.3,69,0.00,CLR,,0.00,WeatherDisplay:10.37,2013-02-08 02:29:00,
2013-02-07 21:34:00,73.8,63.0,29.95,SSE,158,1.1,1.1,69,0.00,CLR,,0.00,WeatherDisplay:10.37,2013-02-08 02:34:00,
2013-02-07 21:39:00,73.9,63.1,29.95,WSW,248,2.3,2.3,69,0.00,CLR,,0.00,WeatherDisplay:10.37,2013-02-08 02:39:00,
2013-02-07 21:44:00,73.9,63.1,29.95,SSE,158,2.3,2.3,69,0.00,CLR,,0.00,WeatherDisplay:10.37,2013-02-08 02:44:00,
2013-02-07 21:49:00,73.9,63.1,29.95,SSE,158,2.3,2.3,69,0.00,CLR,,0.00,WeatherDisplay:10.37,2013-02-08 02:49:00,
2013-02-07 21:54:00,73.6,62.8,29.95,NW,315,2.3,2.3,69,0.00,CLR,,0.00,WeatherDisplay:10.37,2013-02-08 02:54:00,
2013-02-07 21:59:00,73.6,62.8,29.95,South,180,2.3,2.3,69,0.00,CLR,,0.00,WeatherDisplay:10.37,2013-02-08 02:59:00,
2013-02-07 22:04:00,73.4,62.6,29.95,SW,225,2.3,2.3,69,0.00,CLR,,0.00,WeatherDisplay:10.37,2013-02-08 03:04:00,
2013-02-07 22:09:00,73.6,62.8,29.94,SW,225,3.5,3.5,69,0.00,CLR,,0.00,WeatherDisplay:10.37,2013-02-08 03:09:00,
2013-02-07 22:14:00,73.2,62.4,29.94,SW,225,1.1,1.1,69,0.00,CLR,,0.00,WeatherDisplay:10.37,2013-02-08 03:14:00,
2013-02-07 22:19:00,73.2,62.4,29.94,WSW,248,1.1,1.1,69,0.00,CLR,,0.00,WeatherDisplay:10.37,2013-02-08 03:19:00,
2013-02-07 22:24:00,73.0,62.3,29.94,WSW,248,0.0,0.5,69,0.00,CLR,,0.00,WeatherDisplay:10.37,2013-02-08 03:24:00,
2013-02-07 22:29:00,73.2,62.4,29.95,West,270,0.0,0.3,69,0.00,CLR,,0.00,WeatherDisplay:10.37,2013-02-08 03:29:00,
2013-02-07 22:34:00,72.9,62.1,29.95,South,180,1.1,1.1,69,0.00,CLR,,0.00,WeatherDisplay:10.37,2013-02-08 03:34:00,
2013-02-07 22:39:00,72.9,62.1,29.95,WSW,248,2.3,2.3,69,0.00,CLR,,0.00,WeatherDisplay:10.37,2013-02-08 03:39:00,
2013-02-07 22:44:00,72.7,61.9,29.95,SW,225,0.0,0.5,69,0.00,CLR,,0.00,WeatherDisplay:10.37,2013-02-08 03:44:00,
2013-02-07 22:49:00,72.7,61.9,29.94,SW,225,2.3,2.3,69,0.00,CLR,,0.00,WeatherDisplay:10.37,2013-02-08 03:49:00,
2013-02-07 22:54:00,72.5,62.2,29.94,SSE,158,0.0,0.6,70,0.00,CLR,,0.00,WeatherDisplay:10.37,2013-02-08 03:54:00,
2013-02-07 22:59:00,72.5,62.2,29.94,SSW,202,0.0,0.6,70,0.00,CLR,,0.00,WeatherDisplay:10.37,2013-02-08 03:59:00,
2013-02-07 23:04:00,72.5,62.2,29.94,South,180,0.0,0.3,70,0.00,CLR,,0.00,WeatherDisplay:10.37,2013-02-08 04:04:00,
2013-02-07 23:09:00,72.3,61.6,29.94,South,180,2.3,2.3,69,0.00,CLR,,0.00,WeatherDisplay:10.37,2013-02-08 04:09:00,
2013-02-07 23:14:00,72.5,62.2,29.94,SSE,158,0.0,0.7,70,0.00,CLR,,0.00,WeatherDisplay:10.37,2013-02-08 04:14:00,
2013-02-07 23:19:00,72.3,62.0,29.94,South,180,2.3,2.3,70,0.00,CLR,,0.00,WeatherDisplay:10.37,2013-02-08 04:19:00,
2013-02-07 23:24:00,72.1,61.8,29.94,South,180,2.3,2.3,70,0.00,CLR,,0.00,WeatherDisplay:10.37,2013-02-08 04:24:00,
2013-02-07 23:29:00,72.1,61.8,29.92,South,180,2.3,2.3,70,0.00,CLR,,0.00,WeatherDisplay:10.37,2013-02-08 04:29:00,
2013-02-07 23:34:00,72.0,62.0,29.92,South,180,4.6,4.6,71,0.00,CLR,,0.00,WeatherDisplay:10.37,2013-02-08 04:34:00,
2013-02-07 23:39:00,72.1,62.2,29.92,SSE,158,6.9,6.9,71,0.00,CLR,,0.00,WeatherDisplay:10.37,2013-02-08 04:39:00,
2013-02-07 23:44:00,72.1,62.2,29.92,SW,225,2.3,3.3,71,0.00,CLR,,0.00,WeatherDisplay:10.37,2013-02-08 04:44:00,
2013-02-07 23:49:00,72.1,62.2,29.90,SE,135,8.1,8.1,71,0.00,CLR,,0.00,WeatherDisplay:10.37,2013-02-08 04:49:00,
2013-02-07 23:54:00,72.0,62.0,29.90,South,180,3.5,3.5,71,0.00,CLR,,0.00,WeatherDisplay:10.37,2013-02-08 04:54:00,
2013-02-07 23:59:00,72.0,62.0,29.90,South,180,3.5,3.5,71,0.00,CLR,,0.00,WeatherDisplay:10.37,2013-02-08 04:59:00,